Year,Month,Day,Hour,Minute,Value (Times are PST for temperature in C)
2014,09,17,09,12,13.90
2014,09,17,09,13,13.90
2014,09,17,09,14,13.90
2014,09,17,09,15,13.90
2014,09,17,09,16,13.90
2014,09,17,09,17,13.90
2014,09,17,09,18,13.90
2014,09,17,09,19,13.90
2014,09,17,09,20,13.90
2014,09,17,09,21,13.90
2014,09,17,09,22,13.90
2014,09,17,09,23,13.90
2014,09,17,09,24,13.90
2014,09,17,09,25,13.90
2014,09,17,09,26,13.90
2014,09,17,09,27,13.90
2014,09,17,09,28,13.90
2014,09,17,09,29,13.90
2014,09,17,09,30,13.80
2014,09,17,09,31,13.80
2014,09,17,09,32,13.80
2014,09,17,09,33,13.90
2014,09,17,09,34,13.90
2014,09,17,09,35,13.90
2014,09,17,09,36,13.90
2014,09,17,09,37,14.00
2014,09,17,09,38,14.00
2014,09,17,09,39,14.00
2014,09,17,09,40,14.10
2014,09,17,09,41,14.10
2014,09,17,09,42,14.10
2014,09,17,09,43,14.10
2014,09,17,09,44,14.10
2014,09,17,09,45,14.00
2014,09,17,09,46,14.00
2014,09,17,09,47,14.00
2014,09,17,09,48,14.00
2014,09,17,09,49,13.90
2014,09,17,09,50,13.90
2014,09,17,09,51,13.90
2014,09,17,09,52,13.90
2014,09,17,09,53,13.90
2014,09,17,09,54,13.90
2014,09,17,09,55,13.90
2014,09,17,09,56,13.90
2014,09,17,09,57,13.90
2014,09,17,09,58,13.80
2014,09,17,09,59,13.80
2014,09,17,10,00,13.80
2014,09,17,10,01,13.80
2014,09,17,10,02,13.80
2014,09,17,10,03,13.80
2014,09,17,10,04,13.80
2014,09,17,10,05,13.80
2014,09,17,10,06,13.80
2014,09,17,10,07,13.80
2014,09,17,10,08,13.80
2014,09,17,10,09,13.80
2014,09,17,10,10,13.80
2014,09,17,10,11,13.80
2014,09,17,10,12,13.80
2014,09,17,10,13,13.80
2014,09,17,10,14,13.80
2014,09,17,10,15,13.80
2014,09,17,10,16,13.80
2014,09,17,10,17,13.90
2014,09,17,10,18,13.90
2014,09,17,10,19,13.90
2014,09,17,10,20,13.90
2014,09,17,10,21,13.90
2014,09,17,10,22,13.90
2014,09,17,10,23,13.90
2014,09,17,10,24,13.90
2014,09,17,10,25,13.90
2014,09,17,10,26,14.00
2014,09,17,10,27,14.00
2014,09,17,10,28,14.00
2014,09,17,10,29,14.00
2014,09,17,10,30,14.00
2014,09,17,10,31,14.00
2014,09,17,10,32,14.10
2014,09,17,10,33,14.10
2014,09,17,10,34,14.10
2014,09,17,10,35,14.10
2014,09,17,10,36,14.10
2014,09,17,10,37,14.10
2014,09,17,10,38,14.10
2014,09,17,10,39,14.20
2014,09,17,10,40,14.20
2014,09,17,10,41,14.20
2014,09,17,10,42,14.20
2014,09,17,10,43,14.20
2014,09,17,10,44,14.20
2014,09,17,10,45,14.30
2014,09,17,10,46,14.30
2014,09,17,10,47,14.30
2014,09,17,10,48,14.30
2014,09,17,10,49,14.30
2014,09,17,10,50,14.30
2014,09,17,10,51,14.30
2014,09,17,10,52,14.30
2014,09,17,10,53,14.30
2014,09,17,10,54,14.30
2014,09,17,10,55,14.30
2014,09,17,10,56,14.30
2014,09,17,10,57,14.30
2014,09,17,10,58,14.30
2014,09,17,10,59,14.30
2014,09,17,11,00,14.30
2014,09,17,11,01,14.30
2014,09,17,11,02,14.30
2014,09,17,11,03,14.30
2014,09,17,11,04,14.30
2014,09,17,11,05,14.30
2014,09,17,11,06,14.30
2014,09,17,11,07,14.30
2014,09,17,11,08,14.30
2014,09,17,11,09,14.20
2014,09,17,11,10,14.20
2014,09,17,11,11,14.10
2014,09,17,11,12,14.10
2014,09,17,11,13,14.00
2014,09,17,11,14,14.00
2014,09,17,11,15,14.00
2014,09,17,11,16,14.00
2014,09,17,11,17,14.00
2014,09,17,11,18,14.00
2014,09,17,11,19,14.00
2014,09,17,11,20,14.10
2014,09,17,11,21,14.10
2014,09,17,11,22,14.10
2014,09,17,11,23,14.20
2014,09,17,11,24,14.20
2014,09,17,11,25,14.20
2014,09,17,11,26,14.20
2014,09,17,11,27,14.20
2014,09,17,11,28,14.20
2014,09,17,11,29,14.20
2014,09,17,11,30,14.10
2014,09,17,11,31,14.10
2014,09,17,11,32,14.10
2014,09,17,11,33,14.10
2014,09,17,11,34,14.10
2014,09,17,11,35,14.10
2014,09,17,11,36,14.10
2014,09,17,11,37,14.10
2014,09,17,11,38,14.10
2014,09,17,11,39,14.10
2014,09,17,11,40,14.10
2014,09,17,11,41,14.20
2014,09,17,11,42,14.20
2014,09,17,11,43,14.20
2014,09,17,11,44,14.30
2014,09,17,11,45,14.40
2014,09,17,11,46,14.40
2014,09,17,11,47,14.50
2014,09,17,11,48,14.60
2014,09,17,11,49,14.60
2014,09,17,11,50,14.70
2014,09,17,11,51,14.80
2014,09,17,11,52,14.90
2014,09,17,11,53,15.00
2014,09,17,11,54,15.10
2014,09,17,11,55,15.20
2014,09,17,11,56,15.20
2014,09,17,11,57,15.30
2014,09,17,11,58,15.40
2014,09,17,11,59,15.40
2014,09,17,12,00,15.40
2014,09,17,12,01,15.40
2014,09,17,12,02,15.50
2014,09,17,12,03,15.50
2014,09,17,12,04,15.50
2014,09,17,12,05,15.60
2014,09,17,12,06,15.60
2014,09,17,12,07,15.60
2014,09,17,12,08,15.60
2014,09,17,12,09,15.50
2014,09,17,12,10,15.50
2014,09,17,12,11,15.50
2014,09,17,12,12,15.50
2014,09,17,12,13,15.50
2014,09,17,12,14,15.50
2014,09,17,12,15,15.40
2014,09,17,12,16,15.30
2014,09,17,12,17,15.10
2014,09,17,12,18,15.00
2014,09,17,12,19,14.90
2014,09,17,12,20,14.80
2014,09,17,12,21,14.70
2014,09,17,12,22,14.70
2014,09,17,12,23,14.60
2014,09,17,12,24,14.60
2014,09,17,12,25,14.60
2014,09,17,12,26,14.60
2014,09,17,12,27,14.70
2014,09,17,12,28,14.70
2014,09,17,12,29,14.70
2014,09,17,12,30,14.80
2014,09,17,12,31,14.80
2014,09,17,12,32,14.80
2014,09,17,12,33,14.80
2014,09,17,12,34,14.90
2014,09,17,12,35,14.90
2014,09,17,12,36,15.00
2014,09,17,12,37,15.10
2014,09,17,12,38,15.10
2014,09,17,12,39,15.20
2014,09,17,12,40,15.20
2014,09,17,12,41,15.20
2014,09,17,12,42,15.30
2014,09,17,12,43,15.30
2014,09,17,12,44,15.30
2014,09,17,12,45,15.40
2014,09,17,12,46,15.40
2014,09,17,12,47,15.50
2014,09,17,12,48,15.50
2014,09,17,12,49,15.60
2014,09,17,12,50,15.60
2014,09,17,12,51,15.70
2014,09,17,12,52,15.80
2014,09,17,12,53,15.80
2014,09,17,12,54,15.90
2014,09,17,12,55,16.00
2014,09,17,12,56,16.10
2014,09,17,12,57,16.10
2014,09,17,12,58,16.20
2014,09,17,12,59,16.20
2014,09,17,13,00,16.20
2014,09,17,13,01,16.20
2014,09,17,13,02,16.30
2014,09,17,13,03,16.30
2014,09,17,13,04,16.30
2014,09,17,13,05,16.30
2014,09,17,13,06,16.30
2014,09,17,13,07,16.30
2014,09,17,13,08,16.30
2014,09,17,13,09,16.40
2014,09,17,13,10,16.40
2014,09,17,13,11,16.50
2014,09,17,13,12,16.50
2014,09,17,13,13,16.60
2014,09,17,13,14,16.60
2014,09,17,13,15,16.60
2014,09,17,13,16,16.60
2014,09,17,13,17,16.70
2014,09,17,13,18,16.70
2014,09,17,13,19,16.70
2014,09,17,13,20,16.80
2014,09,17,13,21,16.80
2014,09,17,13,22,16.80
2014,09,17,13,23,16.90
2014,09,17,13,24,16.90
2014,09,17,13,25,17.00
2014,09,17,13,26,17.00
2014,09,17,13,27,17.10
2014,09,17,13,28,17.20
2014,09,17,13,29,17.20
2014,09,17,13,30,17.20
2014,09,17,13,31,17.30
2014,09,17,13,32,17.30
2014,09,17,13,33,17.40
2014,09,17,13,34,17.40
2014,09,17,13,35,17.40
2014,09,17,13,36,17.40
2014,09,17,13,37,17.50
2014,09,17,13,38,17.50
2014,09,17,13,39,17.60
2014,09,17,13,40,17.60
2014,09,17,13,41,17.60
2014,09,17,13,42,17.60
2014,09,17,13,43,17.70
2014,09,17,13,44,17.70
2014,09,17,13,45,17.70
2014,09,17,13,46,17.70
2014,09,17,13,47,17.60
2014,09,17,13,48,17.60
2014,09,17,13,49,17.50
2014,09,17,13,50,17.40
2014,09,17,13,51,17.40
2014,09,17,13,52,17.40
2014,09,17,13,53,17.40
2014,09,17,13,54,17.40
2014,09,17,13,55,17.40
2014,09,17,13,56,17.40
2014,09,17,13,57,17.40
2014,09,17,13,58,17.30
2014,09,17,13,59,17.30
2014,09,17,14,00,17.30
2014,09,17,14,01,17.20
2014,09,17,14,02,17.10
2014,09,17,14,03,17.10
2014,09,17,14,04,17.10
2014,09,17,14,05,17.00
2014,09,17,14,06,17.00
2014,09,17,14,07,17.00
2014,09,17,14,08,17.00
2014,09,17,14,09,16.90
2014,09,17,14,10,16.90
2014,09,17,14,11,16.90
2014,09,17,14,12,16.80
2014,09,17,14,13,16.80
2014,09,17,14,14,16.80
2014,09,17,14,15,16.80
2014,09,17,14,16,16.70
2014,09,17,14,17,16.70
2014,09,17,14,18,16.70
2014,09,17,14,19,16.60
2014,09,17,14,20,16.60
2014,09,17,14,21,16.60
2014,09,17,14,22,16.50
2014,09,17,14,23,16.50
2014,09,17,14,24,16.50
2014,09,17,14,25,16.40
2014,09,17,14,26,16.40
2014,09,17,14,27,16.40
2014,09,17,14,28,16.30
2014,09,17,14,29,16.30
2014,09,17,14,30,16.20
2014,09,17,14,31,16.20
2014,09,17,14,32,16.20
2014,09,17,14,33,16.20
2014,09,17,14,34,16.20
2014,09,17,14,35,16.20
2014,09,17,14,36,16.20
2014,09,17,14,37,16.20
2014,09,17,14,38,16.30
2014,09,17,14,39,16.30
2014,09,17,14,40,16.30
2014,09,17,14,41,16.30
2014,09,17,14,42,16.30
2014,09,17,14,43,16.30
2014,09,17,14,44,16.20
2014,09,17,14,45,16.20
2014,09,17,14,46,16.10
2014,09,17,14,47,16.10
2014,09,17,14,48,16.00
2014,09,17,14,49,16.00
2014,09,17,14,50,15.90
2014,09,17,14,51,15.90
2014,09,17,14,52,15.90
2014,09,17,14,53,15.90
2014,09,17,14,54,15.90
2014,09,17,14,55,15.90
2014,09,17,14,56,15.90
2014,09,17,14,57,15.90
2014,09,17,14,58,15.80
2014,09,17,14,59,15.80
2014,09,17,15,00,15.80
2014,09,17,15,01,15.90
2014,09,17,15,02,15.90
2014,09,17,15,03,15.90
2014,09,17,15,04,15.90
2014,09,17,15,05,16.00
2014,09,17,15,06,16.00
2014,09,17,15,07,16.00
2014,09,17,15,08,16.10
2014,09,17,15,09,16.10
2014,09,17,15,10,16.20
2014,09,17,15,11,16.20
2014,09,17,15,12,16.20
2014,09,17,15,13,16.20
2014,09,17,15,14,16.30
2014,09,17,15,15,16.30
2014,09,17,15,16,16.40
2014,09,17,15,17,16.40
2014,09,17,15,18,16.40
2014,09,17,15,19,16.40
2014,09,17,15,20,16.50
2014,09,17,15,21,16.50
2014,09,17,15,22,16.50
2014,09,17,15,23,16.60
2014,09,17,15,24,16.60
2014,09,17,15,25,16.70
2014,09,17,15,26,16.80
2014,09,17,15,27,16.80
2014,09,17,15,28,16.90
2014,09,17,15,29,16.90
2014,09,17,15,30,17.00
2014,09,17,15,31,17.10
2014,09,17,15,32,17.10
2014,09,17,15,33,17.20
2014,09,17,15,34,17.20
2014,09,17,15,35,17.30
2014,09,17,15,36,17.30
2014,09,17,15,37,17.30
2014,09,17,15,38,17.30
2014,09,17,15,39,17.40
2014,09,17,15,40,17.40
2014,09,17,15,41,17.40
2014,09,17,15,42,17.40
2014,09,17,15,43,17.40
2014,09,17,15,44,17.40
2014,09,17,15,45,17.50
2014,09,17,15,46,17.50
2014,09,17,15,47,17.50
2014,09,17,15,48,17.60
2014,09,17,15,49,17.60
2014,09,17,15,50,17.60
2014,09,17,15,51,17.60
2014,09,17,15,52,17.60
2014,09,17,15,53,17.70
2014,09,17,15,54,17.70
2014,09,17,15,55,17.70
2014,09,17,15,56,17.80
2014,09,17,15,57,17.80
2014,09,17,15,58,17.80
2014,09,17,15,59,17.80
2014,09,17,16,00,17.80
2014,09,17,16,01,17.80
2014,09,17,16,02,17.80
2014,09,17,16,03,17.80
2014,09,17,16,04,17.70
2014,09,17,16,05,17.70
2014,09,17,16,06,17.60
2014,09,17,16,07,17.60
2014,09,17,16,08,17.60
2014,09,17,16,09,17.50
2014,09,17,16,10,17.50
2014,09,17,16,11,17.40
2014,09,17,16,12,17.40
2014,09,17,16,13,17.40
2014,09,17,16,14,17.40
2014,09,17,16,15,17.30
2014,09,17,16,16,17.30
2014,09,17,16,17,17.30
2014,09,17,16,18,17.30
2014,09,17,16,19,17.20
2014,09,17,16,20,17.20
2014,09,17,16,21,17.20
2014,09,17,16,22,17.20
2014,09,17,16,23,17.20
2014,09,17,16,24,17.20
2014,09,17,16,25,17.20
2014,09,17,16,26,17.20
2014,09,17,16,27,17.20
2014,09,17,16,28,17.20
2014,09,17,16,29,17.20
2014,09,17,16,30,17.20
2014,09,17,16,31,17.20
2014,09,17,16,32,17.20
2014,09,17,16,33,17.20
2014,09,17,16,34,17.20
2014,09,17,16,35,17.20
2014,09,17,16,36,17.20
2014,09,17,16,37,17.20
2014,09,17,16,38,17.20
2014,09,17,16,39,17.20
2014,09,17,16,40,17.20
2014,09,17,16,41,17.20
2014,09,17,16,42,17.20
2014,09,17,16,43,17.20
2014,09,17,16,44,17.30
2014,09,17,16,45,17.30
2014,09,17,16,46,17.30
2014,09,17,16,47,17.40
2014,09,17,16,48,17.40
2014,09,17,16,49,17.50
2014,09,17,16,50,17.60
2014,09,17,16,51,17.60
2014,09,17,16,52,17.60
2014,09,17,16,53,17.60
2014,09,17,16,54,17.60
2014,09,17,16,55,17.70
2014,09,17,16,56,17.60
2014,09,17,16,57,17.60
2014,09,17,16,58,17.60
2014,09,17,16,59,17.60
2014,09,17,17,00,17.60
2014,09,17,17,01,17.60
2014,09,17,17,02,17.60
2014,09,17,17,03,17.60
2014,09,17,17,04,17.60
2014,09,17,17,05,17.60
2014,09,17,17,06,17.60
2014,09,17,17,07,17.60
